1514750400.46,25466,7.5,73016.3,-3.43,-4.69,-4.57,0,*5A
1514750401.7,25467,7.5,73014.3,-3.45,-4.77,-4.73,0,*54
1514750402.97,25468,7.5,73016.8,-3.43,-4.81,-4.81,0,*59
1514750404.21,25469,7.5,73016.0,-3.39,-4.89,-4.81,0,*5D
1514750405.46,25470,7.5,73018.8,-3.39,-4.89,-4.81,0,*55
1514750406.7,25471,7.5,73018.3,-3.39,-4.89,-4.89,0,*5C
1514750407.97,25472,7.5,73016.5,-3.43,-4.85,-4.81,0,*56
1514750409.23,25473,7.5,73016.3,-3.43,-4.85,-4.81,0,*57
1514750410.5,25474,7.5,73016.0,-3.43,-4.85,-4.81,0,*50
1514750411.76,25475,7.5,73016.8,-3.43,-4.81,-4.73,0,*58
1514750413.0,25476,7.5,73018.5,-3.43,-4.73,-4.61,0,*55
1514750414.27,25477,7.5,73020.8,-3.43,-4.81,-4.69,0,*51
1514750415.49,25478,7.5,73018.0,-3.43,-4.61,-4.61,0,*58
1514750416.76,25479,7.5,73018.0,-3.43,-4.69,-4.69,0,*59
1514750417.95,25480,7.5,73018.8,-3.39,-4.65,-4.57,0,*53
1514750419.15,25481,7.5,73018.3,-3.39,-4.65,-4.65,0,*53
1514750420.35,25482,7.5,73016.0,-3.39,-4.65,-4.57,0,*51
1514750421.55,25483,7.5,73016.8,-3.39,-4.65,-4.57,0,*50
1514750422.79,25484,7.5,73018.3,-3.39,-4.77,-4.69,0,*59
1514750424.03,25485,7.5,73022.8,-3.39,-4.77,-4.69,0,*58
1514750425.29,25486,7.5,73020.3,-3.37,-4.69,-4.77,0,*55
1514750426.53,25487,7.5,73020.5,-3.39,-4.77,-4.77,0,*55
1514750427.77,25488,7.5,73020.3,-3.39,-4.81,-4.77,0,*53
1514750429.0,25489,7.5,73026.3,-3.39,-4.81,-4.77,0,*52
1514750430.24,25490,7.5,73020.3,-3.39,-4.77,-4.77,0,*53
1514750431.5,25491,7.5,73024.3,-3.43,-4.81,-4.73,0,*52
1514750432.77,25492,7.5,73020.5,-3.43,-4.81,-4.73,0,*51
1514750434.03,25493,7.5,73022.5,-3.43,-4.85,-4.85,0,*5D
1514750435.3,25494,7.5,73022.3,-3.43,-4.85,-4.81,0,*5E
1514750436.56,25495,7.5,73022.0,-3.43,-4.81,-4.73,0,*56
1514750437.83,25496,7.5,73022.0,-3.43,-4.93,-4.85,0,*5F
1514750439.09,25497,7.5,73020.0,-3.43,-4.93,-4.93,0,*59
1514750440.35,25498,7.5,73022.5,-3.43,-4.85,-4.85,0,*56
1514750441.62,25499,7.5,73016.0,-3.43,-4.73,-4.81,0,*5A
1514750442.89,25500,7.5,73018.5,-3.43,-4.73,-4.69,0,*5D
1514750444.15,25501,7.5,73020.8,-3.43,-4.85,-4.73,0,*5E
1514750445.41,25502,7.5,73024.5,-3.43,-4.85,-4.81,0,*50
1514750446.68,25503,7.5,73026.0,-3.43,-4.85,-4.73,0,*5C
1514750447.94,25504,7.5,73028.3,-3.43,-4.85,-4.81,0,*56
1514750449.21,25505,7.5,73030.8,-3.43,-4.85,-4.81,0,*57
1514750450.47,25506,7.5,73026.3,-3.43,-4.81,-4.69,0,*56
1514750451.74,25507,7.5,73024.8,-3.43,-4.73,-4.69,0,*5A
1514750453.01,25508,7.5,73024.3,-3.43,-4.81,-4.73,0,*53
1514750454.27,25509,7.5,73020.3,-3.43,-4.93,-4.85,0,*58
1514750455.51,25510,7.5,73018.5,-3.39,-4.89,-4.81,0,*52
1514750456.76,25511,7.5,73024.8,-3.39,-4.89,-4.81,0,*53
1514750458.01,25512,7.5,73028.8,-3.39,-4.89,-4.89,0,*58
1514750459.25,25513,7.5,73020.8,-3.39,-4.89,-4.89,0,*59
1514750460.5,25514,7.5,73022.0,-3.39,-4.89,-4.89,0,*5E
1514750461.77,25515,7.5,73022.0,-3.43,-4.93,-4.81,0,*51
1514750463.03,25516,7.5,73026.0,-3.43,-4.85,-4.85,0,*51
1514750464.29,25517,7.5,73026.3,-3.43,-4.93,-4.93,0,*50
1514750465.55,25518,7.5,73026.8,-3.43,-4.93,-4.93,0,*5F
1514750466.81,25519,7.5,73024.3,-3.43,-4.85,-4.93,0,*59
1514750468.03,25520,7.5,73024.8,-3.45,-4.99,-4.89,0,*53
1514750469.29,25521,7.5,73026.8,-3.43,-4.93,-4.93,0,*55
1514750470.53,25522,7.5,73026.3,-3.43,-4.99,-4.93,0,*5C
1514750471.77,25523,7.44,73022.3,-3.43,-4.99,-4.93,0,*5D
1514750473.04,25524,7.5,73022.3,-3.43,-5.07,-4.93,0,*5C
1514750474.32,25525,7.5,73020.3,-3.43,-5.07,-5.07,0,*51
1514750475.57,25526,7.5,73022.8,-3.45,-5.03,-5.03,0,*54
1514750476.76,25527,7.5,73024.0,-3.45,-4.99,-4.99,0,*55
1514750477.94,25528,7.5,73024.5,-3.45,-4.99,-4.99,0,*5A
1514750479.13,25529,7.5,73026.3,-3.45,-4.99,-4.99,0,*5B
1514750480.35,25530,7.5,73020.5,-3.45,-5.03,-4.99,0,*51
1514750481.56,25531,7.5,73022.0,-3.45,-5.11,-4.99,0,*53
1514750482.77,25532,7.5,73022.5,-3.45,-5.11,-4.99,0,*50
1514750484.02,25533,7.5,73020.3,-3.45,-5.03,-4.89,0,*53
1514750485.23,25534,7.5,73018.0,-3.45,-4.99,-4.89,0,*56
1514750486.42,25535,7.5,73024.3,-3.45,-4.99,-4.99,0,*56
1514750487.61,25536,7.5,73024.8,-3.45,-4.99,-4.99,0,*55
1514750488.82,25537,7.5,73022.8,-3.45,-4.99,-4.89,0,*55
1514750490.01,25538,7.5,73026.5,-3.45,-4.99,-4.99,0,*5B
1514750491.22,25539,7.44,73020.0,-3.45,-4.99,-4.89,0,*5B
1514750492.44,25540,7.5,73020.5,-3.45,-4.99,-4.89,0,*55
1514750493.65,25541,7.5,73022.8,-3.45,-4.99,-4.89,0,*54
1514750494.87,25542,7.5,73022.8,-3.45,-4.89,-4.99,0,*57
1514750496.08,25543,7.5,73020.8,-3.45,-4.99,-4.89,0,*56
1514750497.32,25544,7.44,73018.5,-3.45,-4.77,-4.77,0,*50
1514750498.58,25545,7.5,73022.3,-3.47,-4.85,-4.77,0,*5E
1514750499.81,25546,7.44,73012.3,-3.45,-4.85,-4.85,0,*52
1514750501.05,25547,7.44,73014.0,-3.45,-4.89,-4.77,0,*52
1514750502.29,25548,7.5,73020.8,-3.45,-4.77,-4.73,0,*58
1514750503.5,25549,7.5,73020.5,-3.45,-4.85,-4.65,0,*53
1514750504.74,25550,7.5,73020.3,-3.45,-4.85,-4.77,0,*58
1514750505.97,25551,7.5,73018.8,-3.45,-4.85,-4.73,0,*5D
1514750507.24,25552,7.44,73018.5,-3.43,-4.81,-4.73,0,*5C
1514750508.48,25553,7.5,73020.0,-3.45,-4.89,-4.85,0,*5A
1514750509.75,25554,7.5,73024.0,-3.47,-4.89,-4.85,0,*5F
1514750510.94,25555,7.5,73020.8,-3.45,-4.99,-4.99,0,*50
1514750512.12,25556,7.5,73022.8,-3.45,-4.99,-4.99,0,*53
1514750513.34,25557,7.5,73022.8,-3.45,-4.99,-4.89,0,*53
1514750514.55,25558,7.5,73026.3,-3.45,-4.89,-4.99,0,*5C
1514750515.77,25559,7.44,73022.0,-3.45,-4.99,-4.89,0,*5D
1514750517.03,25560,7.5,73028.3,-3.47,-4.89,-4.89,0,*54
1514750518.28,25561,7.44,73022.3,-3.45,-4.89,-4.89,0,*57
1514750519.47,25562,7.5,73026.3,-3.45,-4.99,-4.99,0,*54
1514750520.65,25563,7.5,73026.3,-3.45,-4.99,-4.99,0,*55
1514750521.9,25564,7.5,73028.5,-3.45,-4.89,-4.89,0,*52
1514750523.14,25565,7.5,73024.8,-3.45,-4.89,-4.89,0,*53
1514750524.33,25566,7.44,73024.3,-3.45,-4.99,-4.99,0,*50
1514750525.53,25567,7.5,73028.5,-3.47,-4.99,-4.99,0,*53
1514750526.74,25568,7.5,73028.0,-3.47,-4.99,-4.99,0,*5C
1514750527.95,25569,7.5,73026.5,-3.47,-4.99,-4.99,0,*5D
1514750529.19,25570,7.44,73026.0,-3.47,-4.99,-4.89,0,*54
1514750530.4,25571,7.5,73026.0,-3.47,-4.99,-4.99,0,*54
1514750531.65,25572,7.5,73028.8,-3.49,-5.07,-5.03,0,*5D
1514750532.87,25573,7.5,73032.8,-3.45,-5.03,-4.99,0,*56
1514750534.11,25574,7.5,73030.3,-3.47,-4.89,-4.99,0,*50
1514750535.37,25575,7.5,73028.3,-3.49,-5.03,-5.03,0,*5E
1514750536.61,25576,7.44,73026.3,-3.47,-5.03,-4.99,0,*51
1514750537.88,25577,7.5,73030.0,-3.47,-5.11,-5.11,0,*52
1514750539.15,25578,7.44,73024.3,-3.47,-5.15,-5.11,0,*59
1514750540.4,25579,7.44,73026.0,-3.49,-5.23,-5.19,0,*5B
1514750541.65,25580,7.5,73026.3,-3.49,-5.19,-5.15,0,*58
1514750542.92,25581,7.44,73024.0,-3.47,-5.19,-5.19,0,*5B
1514750544.18,25582,7.5,73024.3,-3.49,-5.23,-5.19,0,*5F
1514750545.44,25583,7.44,73016.0,-3.49,-5.15,-5.07,0,*54
1514750546.69,25584,7.44,73018.0,-3.49,-5.07,-5.07,0,*50
1514750547.93,25585,7.5,73022.0,-3.47,-4.99,-4.89,0,*5E
1514750549.14,25586,7.44,73020.0,-3.47,-4.99,-4.99,0,*5C
1514750550.4,25587,7.5,73022.8,-3.49,-5.03,-5.03,0,*53
1514750551.67,25588,7.5,73022.8,-3.51,-4.89,-4.93,0,*5E
1514750552.91,25589,7.44,73022.3,-3.49,-4.93,-4.89,0,*56
1514750554.16,25590,7.44,73020.8,-3.49,-5.03,-4.93,0,*5D
1514750555.41,25591,7.5,73018.3,-3.49,-5.03,-4.93,0,*5C
1514750556.67,25592,7.44,73016.3,-3.49,-5.03,-5.03,0,*57
1514750557.9,25593,7.5,73018.5,-3.49,-4.93,-4.93,0,*56
1514750559.16,25594,7.44,73018.3,-3.49,-5.03,-4.81,0,*5A
1514750560.4,25595,7.5,73018.3,-3.49,-4.93,-4.89,0,*5B
1514750561.65,25596,7.5,73016.3,-3.49,-5.03,-4.93,0,*5B
1514750562.89,25597,7.5,73020.0,-3.49,-4.93,-4.89,0,*59
1514750564.13,25598,7.5,73016.8,-3.49,-4.81,-4.77,0,*54
1514750565.38,25599,7.44,73014.5,-3.49,-4.81,-4.69,0,*5A
1514750566.62,25600,7.44,73008.8,-3.49,-4.89,-4.89,0,*5F
1514750567.88,25601,7.44,73012.5,-3.47,-4.77,-4.73,0,*54
1514750569.14,25602,7.44,73014.5,-3.47,-4.85,-4.81,0,*57
1514750570.39,25603,7.44,73014.5,-3.49,-4.89,-4.81,0,*54
1514750571.64,25604,7.44,73016.0,-3.49,-4.89,-4.77,0,*5A
1514750572.88,25605,7.44,73014.3,-3.49,-4.81,-4.77,0,*53
1514750574.13,25606,7.5,73016.8,-3.49,-4.89,-4.89,0,*59
1514750575.38,25607,7.44,73016.5,-3.47,-4.77,-4.73,0,*52
1514750576.63,25608,7.44,73016.8,-3.49,-4.81,-4.77,0,*5E
1514750577.86,25609,7.5,73018.0,-3.47,-4.77,-4.65,0,*5B
1514750579.11,25610,7.44,73016.3,-3.49,-4.73,-4.69,0,*55
1514750580.36,25611,7.44,73018.0,-3.47,-4.77,-4.73,0,*55
1514750581.61,25612,7.44,73016.5,-3.49,-4.89,-4.81,0,*54
1514750582.87,25613,7.5,73022.3,-3.47,-4.85,-4.77,0,*5E
1514750584.12,25614,7.44,73022.8,-3.49,-4.89,-4.89,0,*5A
1514750585.36,25615,7.44,73024.0,-3.49,-4.93,-4.89,0,*50
1514750586.6,25616,7.44,73024.8,-3.47,-4.89,-4.99,0,*57
1514750587.85,25617,7.44,73024.8,-3.49,-5.03,-4.93,0,*51
1514750589.11,25618,7.5,73024.5,-3.49,-5.03,-5.03,0,*56
1514750590.36,25619,7.44,73024.0,-3.49,-5.07,-5.03,0,*53
1514750591.64,25620,7.5,73024.8,-3.47,-5.03,-5.03,0,*53
1514750592.89,25621,7.44,73020.8,-3.49,-5.07,-5.03,0,*58
1514750594.14,25622,7.44,73020.5,-3.49,-5.03,-4.93,0,*57
1514750595.41,25623,7.44,73016.0,-3.47,-4.89,-4.89,0,*50
1514750596.66,25624,7.5,73020.3,-3.49,-5.03,-4.93,0,*51
1514750597.9,25625,7.44,73016.0,-3.49,-4.93,-4.93,0,*58
1514750599.14,25626,7.5,73016.3,-3.49,-4.81,-4.77,0,*52
1514750600.38,25627,7.44,73014.8,-3.47,-4.73,-4.65,0,*53
1514750601.62,25628,7.5,73012.8,-3.49,-4.81,-4.77,0,*5C
1514750602.84,25629,7.44,73014.8,-3.49,-4.77,-4.65,0,*57
1514750604.08,25630,7.5,73014.5,-3.49,-4.81,-4.69,0,*5A
1514750605.32,25631,7.5,73016.5,-3.47,-4.77,-4.65,0,*50
1514750606.56,25632,7.5,73022.3,-3.49,-4.81,-4.77,0,*57
1514750607.78,25633,7.44,73020.3,-3.49,-4.69,-4.65,0,*53
1514750608.98,25634,7.5,73024.3,-3.49,-4.57,-4.57,0,*58
1514750610.2,25635,7.5,73020.3,-3.47,-4.65,-4.61,0,*53
1514750611.42,25636,7.44,73008.3,-3.47,-4.61,-4.53,0,*55
1514750612.64,25637,7.44,73012.3,-3.47,-4.65,-4.61,0,*51
1514750613.88,25638,7.5,73024.0,-3.47,-4.73,-4.65,0,*5D
1514750615.1,25639,7.44,73016.5,-3.47,-4.65,-4.65,0,*5B
1514750616.31,25640,7.44,73016.8,-3.45,-4.73,-4.61,0,*54
1514750617.53,25641,7.5,73016.8,-3.47,-4.65,-4.65,0,*54
1514750618.75,25642,7.44,73020.5,-3.47,-4.65,-4.65,0,*57
1514750619.97,25643,7.44,73022.3,-3.47,-4.65,-4.65,0,*56
1514750621.23,25644,7.44,73022.0,-3.47,-4.85,-4.73,0,*58
1514750622.47,25645,7.44,73022.3,-3.49,-4.89,-4.81,0,*56
1514750623.74,25646,7.44,73022.3,-3.47,-4.73,-4.73,0,*53
1514750624.98,25647,7.44,73024.5,-3.47,-4.73,-4.65,0,*55
1514750626.21,25648,7.5,73024.5,-3.45,-4.73,-4.73,0,*5F
1514750627.41,25649,7.5,73028.3,-3.45,-4.65,-4.65,0,*5E
1514750628.61,25650,7.44,73020.0,-3.45,-4.65,-4.53,0,*53
1514750629.83,25651,7.44,73024.0,-3.43,-4.61,-4.57,0,*54
1514750631.04,25652,7.44,73018.5,-3.45,-4.73,-4.61,0,*57
1514750632.24,25653,7.44,73012.5,-3.45,-4.53,-4.53,0,*55
1514750633.45,25654,7.44,73008.3,-3.43,-4.49,-4.45,0,*58
1514750634.66,25655,7.44,73014.3,-3.43,-4.49,-4.49,0,*55
1514750635.86,25656,7.5,73016.3,-3.45,-4.61,-4.61,0,*50
1514750637.1,25657,7.44,73012.5,-3.43,-4.69,-4.61,0,*5F
1514750638.36,25658,7.44,73022.3,-3.43,-4.81,-4.81,0,*58
1514750639.55,25659,7.44,73020.3,-3.45,-4.99,-4.99,0,*5F
1514750640.73,25660,7.44,73024.5,-3.45,-4.99,-4.99,0,*55
1514750641.95,25661,7.44,73020.5,-3.45,-5.03,-4.99,0,*56
1514750643.17,25662,7.5,73024.3,-3.45,-5.11,-4.99,0,*56
1514750644.42,25663,7.44,73022.0,-3.45,-5.03,-5.03,0,*56
1514750645.63,25664,7.44,73024.5,-3.43,-4.99,-4.99,0,*57
1514750646.91,25665,7.5,73030.0,-3.47,-5.03,-5.03,0,*52
1514750648.18,25666,7.44,73028.8,-3.47,-5.03,-5.03,0,*51
1514750649.43,25667,7.44,73030.5,-3.45,-5.03,-5.03,0,*52
1514750650.67,25668,7.44,73028.5,-3.45,-4.85,-4.85,0,*5D
1514750651.93,25669,7.5,73034.8,-3.47,-4.77,-4.77,0,*5E
1514750653.19,25670,7.44,73020.8,-3.47,-4.85,-4.77,0,*5B
1514750654.42,25671,7.44,73024.0,-3.45,-4.85,-4.77,0,*58
1514750655.68,25672,7.5,73026.8,-3.47,-4.85,-4.77,0,*59
1514750656.92,25673,7.44,73026.0,-3.45,-4.85,-4.85,0,*57
1514750658.18,25674,7.44,73016.5,-3.47,-4.89,-4.77,0,*53
1514750659.44,25675,7.5,73020.5,-3.47,-4.85,-4.77,0,*5E
1514750660.7,25676,7.44,73020.0,-3.47,-4.77,-4.77,0,*50
1514750661.94,25677,7.44,73018.0,-3.47,-4.65,-4.73,0,*56
1514750663.18,25678,7.44,73018.3,-3.45,-4.73,-4.73,0,*5C
1514750664.39,25679,7.44,73018.3,-3.45,-4.73,-4.65,0,*5A
1514750665.61,25680,7.44,73016.8,-3.45,-4.73,-4.61,0,*58
1514750666.83,25681,7.44,73016.8,-3.45,-4.73,-4.61,0,*59
1514750668.06,25682,7.44,73016.5,-3.45,-4.73,-4.73,0,*59
1514750669.3,25683,7.44,73014.8,-3.47,-4.73,-4.65,0,*5D
1514750670.5,25684,7.5,73018.0,-3.45,-4.65,-4.65,0,*5F
1514750671.72,25685,7.44,73012.3,-3.45,-4.73,-4.65,0,*59
1514750672.91,25686,7.44,73012.3,-3.45,-4.61,-4.61,0,*5D
1514750674.11,25687,7.44,73016.0,-3.45,-4.61,-4.61,0,*5C
1514750675.3,25688,7.44,73018.5,-3.45,-4.61,-4.53,0,*52
1514750676.52,25689,7.44,73016.8,-3.43,-4.61,-4.53,0,*55
1514750677.72,25690,7.44,73018.3,-3.45,-4.61,-4.53,0,*5B
1514750678.93,25691,7.44,73018.3,-3.43,-4.49,-4.49,0,*5D
1514750680.13,25692,7.44,73018.0,-3.45,-4.65,-4.61,0,*5C
1514750681.35,25693,7.44,73018.3,-3.43,-4.61,-4.57,0,*5A
1514750682.54,25694,7.5,73014.5,-3.45,-4.65,-4.61,0,*5A
1514750683.77,25695,7.44,73010.3,-3.43,-4.61,-4.61,0,*59
1514750685.0,25696,7.44,73008.8,-3.45,-4.69,-4.69,0,*5C
1514750686.27,25697,7.44,73008.0,-3.43,-4.73,-4.69,0,*50
1514750687.48,25698,7.44,73010.5,-3.45,-4.85,-4.65,0,*5C
1514750688.72,25699,7.5,73016.3,-3.45,-4.85,-4.89,0,*5F
1514750689.96,25700,7.44,73014.5,-3.45,-4.85,-4.85,0,*52
1514750691.2,25701,7.44,73016.3,-3.45,-4.85,-4.85,0,*53
1514750692.47,25702,7.44,73014.0,-3.43,-4.85,-4.85,0,*56
1514750693.68,25703,7.44,73014.0,-3.45,-4.99,-4.89,0,*50
1514750694.93,25704,7.44,73018.0,-3.45,-4.89,-4.89,0,*56
1514750696.17,25705,7.44,73016.0,-3.45,-4.89,-4.85,0,*5B
1514750697.44,25706,7.44,73018.5,-3.43,-4.81,-4.73,0,*5F
1514750698.67,25707,7.44,73014.0,-3.45,-4.73,-4.73,0,*55
1514750699.89,25708,7.5,73016.8,-3.45,-4.77,-4.65,0,*59
1514750701.1,25709,7.5,73018.5,-3.45,-4.73,-4.61,0,*58
1514750702.32,25710,7.44,73008.8,-3.43,-4.49,-4.49,0,*55
1514750703.53,25711,7.44,73010.0,-3.43,-4.45,-4.37,0,*51
1514750704.74,25712,7.44,73010.3,-3.43,-4.45,-4.45,0,*57
1514750705.96,25713,7.44,73010.0,-3.43,-4.49,-4.37,0,*5F
1514750707.17,25714,7.44,73016.5,-3.43,-4.45,-4.37,0,*54
1514750708.38,25715,7.44,73020.0,-3.43,-4.49,-4.45,0,*5C
1514750709.59,25716,7.5,73024.5,-3.43,-4.45,-4.45,0,*53
1514750710.81,25717,7.44,73022.5,-3.37,-4.53,-4.45,0,*56
1514750712.0,25718,7.44,73024.0,-3.39,-4.53,-4.45,0,*57
1514750713.19,25719,7.44,73024.8,-3.39,-4.53,-4.53,0,*51
1514750714.39,25720,7.44,73024.8,-3.39,-4.65,-4.53,0,*5E
1514750715.58,25721,7.44,73022.5,-3.45,-4.61,-4.57,0,*54
1514750716.78,25722,7.44,73026.8,-3.39,-4.65,-4.53,0,*5C
1514750717.97,25723,7.44,73022.8,-3.39,-4.45,-4.45,0,*58
1514750719.18,25724,7.44,73022.3,-3.43,-4.49,-4.45,0,*5E
1514750720.4,25725,7.44,73022.3,-3.43,-4.49,-4.57,0,*5C
1514750721.62,25726,7.44,73024.8,-3.43,-4.57,-4.49,0,*5F
1514750722.84,25727,7.44,73026.3,-3.43,-4.57,-4.49,0,*5E
1514750724.03,25728,7.44,73022.5,-3.39,-4.53,-4.53,0,*53
1514750725.23,25729,7.44,73024.5,-3.39,-4.57,-4.53,0,*56
1514750726.44,25730,7.44,73022.5,-3.39,-4.57,-4.57,0,*5A
1514750727.67,25731,7.44,73026.5,-3.39,-4.81,-4.77,0,*52
1514750728.92,25732,7.44,73024.3,-3.39,-4.81,-4.89,0,*50
1514750730.16,25733,7.44,73028.5,-3.39,-4.81,-4.81,0,*59
1514750731.4,25734,7.44,73030.8,-3.39,-4.69,-4.77,0,*51
1514750732.61,25735,7.44,73028.8,-3.39,-4.69,-4.57,0,*52
1514750733.88,25736,7.44,73028.3,-3.43,-4.81,-4.73,0,*5C
1514750735.12,25737,7.44,73030.5,-3.39,-4.89,-4.77,0,*5C
1514750736.36,25738,7.44,73032.5,-3.39,-4.81,-4.89,0,*5A
1514750737.63,25739,7.44,73034.8,-3.43,-4.93,-4.85,0,*59
1514750738.84,25740,7.44,73034.0,-3.45,-4.99,-4.89,0,*57
1514750740.1,25741,7.44,73030.0,-3.43,-4.85,-4.93,0,*56
1514750741.35,25742,7.44,73030.5,-3.39,-4.81,-4.89,0,*57
1514750742.59,25743,7.44,73032.0,-3.39,-4.89,-4.89,0,*5E
1514750743.84,25744,7.44,73028.3,-3.39,-4.89,-4.93,0,*52
1514750745.08,25745,7.44,73028.0,-3.39,-4.93,-5.03,0,*50
1514750746.36,25746,7.44,73026.3,-3.43,-5.07,-5.07,0,*56
1514750747.57,25747,7.44,73026.8,-3.43,-4.99,-4.99,0,*57
1514750748.82,25748,7.44,73024.3,-3.45,-5.03,-5.03,0,*5E
1514750750.04,25749,7.44,73028.8,-3.45,-4.99,-4.89,0,*5E
1514750751.23,25750,7.44,73028.5,-3.45,-4.99,-4.99,0,*57
1514750752.49,25751,7.44,73030.5,-3.43,-4.93,-4.93,0,*50
1514750753.75,25752,7.44,73026.8,-3.43,-4.93,-4.93,0,*53
1514750754.93,25753,7.44,73026.0,-3.45,-4.99,-4.99,0,*54
1514750756.18,25754,7.44,73026.8,-3.45,-5.11,-5.11,0,*53
1514750757.42,25755,7.5,73026.0,-3.45,-5.03,-5.11,0,*51
1514750758.67,25756,7.44,73024.8,-3.45,-5.11,-5.03,0,*52
1514750759.92,25757,7.44,73030.3,-3.45,-5.03,-5.03,0,*50
1514750761.14,25758,7.44,73026.3,-3.45,-4.99,-5.03,0,*5D
1514750762.33,25759,7.44,73024.8,-3.45,-4.99,-4.99,0,*5E
1514750763.51,25760,7.44,73024.8,-3.45,-4.99,-4.99,0,*54
1514750764.73,25761,7.44,73024.5,-3.45,-5.03,-4.99,0,*57
1514750766.01,25762,7.44,73026.0,-3.47,-5.03,-5.03,0,*54
1514750767.28,25763,7.44,73028.0,-3.47,-5.03,-5.03,0,*55
1514750768.55,25764,7.44,73024.3,-3.47,-5.11,-5.03,0,*51
1514750769.79,25765,7.44,73024.5,-3.47,-5.03,-4.99,0,*51
1514750771.03,25766,7.44,73026.0,-3.47,-4.99,-4.89,0,*51
1514750772.24,25767,7.44,73026.3,-3.47,-4.99,-4.99,0,*51
1514750773.5,25768,7.44,73026.8,-3.49,-5.07,-5.03,0,*54
1514750774.74,25769,7.44,73020.8,-3.47,-5.03,-4.99,0,*5D
1514750775.99,25770,7.44,73022.5,-3.49,-5.03,-4.93,0,*51
1514750777.23,25771,7.44,73022.8,-3.47,-4.99,-4.89,0,*57
1514750778.45,25772,7.44,73024.0,-3.49,-4.99,-4.89,0,*5A
1514750779.69,25773,7.44,73024.5,-3.49,-4.93,-4.89,0,*51
1514750780.93,25774,7.44,73030.8,-3.49,-4.93,-4.89,0,*56
1514750782.18,25775,7.44,73032.5,-3.49,-4.89,-4.81,0,*54
1514750783.44,25776,7.5,73036.5,-3.47,-4.85,-4.77,0,*5C
1514750784.7,25777,7.44,73032.3,-3.47,-4.77,-4.77,0,*50
1514750785.94,25778,7.44,73034.3,-3.49,-4.81,-4.69,0,*57
1514750787.2,25779,7.44,73030.0,-3.47,-4.73,-4.73,0,*5E
1514750788.44,25780,7.44,73024.0,-3.49,-4.77,-4.77,0,*56
1514750789.68,25781,7.44,73024.5,-3.49,-4.77,-4.69,0,*58
1514750790.92,25782,7.44,73024.5,-3.49,-4.77,-4.77,0,*54
1514750792.11,25783,7.44,73032.8,-3.45,-4.65,-4.65,0,*59
1514750793.33,25784,7.44,73034.0,-3.47,-4.53,-4.49,0,*57
1514750794.54,25785,7.44,73028.5,-3.47,-4.53,-4.53,0,*5D
1514750795.74,25786,7.44,73030.3,-3.45,-4.65,-4.61,0,*58
1514750796.99,25787,7.44,73028.8,-3.47,-4.77,-4.77,0,*5F
1514750798.23,25788,7.44,73026.3,-3.45,-4.85,-4.77,0,*5F
1514750799.46,25789,7.44,73026.3,-3.45,-4.77,-4.73,0,*57
1514750800.72,25790,7.44,73030.5,-3.47,-4.85,-4.77,0,*54
1514750801.97,25791,7.44,73028.0,-3.45,-4.89,-4.85,0,*56
1514750803.23,25792,7.44,73030.0,-3.47,-4.85,-4.85,0,*5B
1514750804.47,25793,7.44,73028.5,-3.47,-4.99,-4.89,0,*5B
1514750805.71,25794,7.44,73026.8,-3.47,-4.99,-4.89,0,*5C
1514750806.98,25795,7.44,73024.8,-3.47,-4.89,-4.89,0,*5C
1514750808.21,25796,7.44,73024.5,-3.47,-4.99,-4.89,0,*5E
1514750809.48,25797,7.44,73026.8,-3.47,-4.89,-4.77,0,*5F
1514750810.71,25798,7.44,73026.5,-3.45,-4.85,-4.77,0,*5E
1514750811.98,25799,7.44,73026.5,-3.47,-4.89,-4.89,0,*50
1514750813.25,25800,7.44,73024.8,-3.47,-4.89,-4.85,0,*53
1514750814.48,25801,7.44,73028.5,-3.45,-4.85,-4.77,0,*51
1514750815.74,25802,7.44,73022.0,-3.47,-4.85,-4.73,0,*54
1514750817.0,25803,7.44,73028.3,-3.47,-4.77,-4.73,0,*58
1514750818.26,25804,7.44,73026.8,-3.47,-4.73,-4.73,0,*5B
1514750819.5,25805,7.44,73024.0,-3.49,-4.77,-4.81,0,*5D
1514750820.74,25806,7.44,73026.0,-3.45,-4.85,-4.85,0,*5B
1514750822.0,25807,7.44,73032.0,-3.47,-4.85,-4.85,0,*58
1514750823.27,25808,7.44,73032.8,-3.47,-4.89,-4.85,0,*5B
1514750824.51,25809,7.44,73036.5,-3.49,-4.77,-4.85,0,*55
1514750825.75,25810,7.44,73034.5,-3.45,-4.85,-4.85,0,*5C
1514750827.0,25811,7.44,73030.5,-3.45,-4.89,-4.89,0,*5D
1514750828.26,25812,7.44,73026.3,-3.47,-4.85,-4.85,0,*5C
1514750829.49,25813,7.44,73022.3,-3.47,-4.85,-4.99,0,*50
1514750830.75,25814,7.44,73018.5,-3.47,-4.85,-4.77,0,*57
1514750831.98,25815,7.44,73014.3,-3.47,-4.77,-4.65,0,*58
1514750833.23,25816,7.44,73016.8,-3.47,-4.73,-4.65,0,*5F
1514750834.48,25817,7.44,73016.0,-3.47,-4.77,-4.77,0,*59
1514750835.74,25818,7.44,73018.0,-3.47,-4.77,-4.85,0,*5B
1514750836.98,25819,7.44,73018.3,-3.45,-4.85,-4.85,0,*55
1514750838.25,25820,7.44,73014.3,-3.47,-4.89,-4.89,0,*5D
1514750839.51,25821,7.44,73018.8,-3.47,-4.85,-4.85,0,*5C
1514750840.76,25822,7.44,73016.8,-3.49,-4.89,-4.93,0,*5A
1514750842.0,25823,7.44,73014.3,-3.47,-4.73,-4.65,0,*59
1514750843.23,25824,7.44,73012.8,-3.47,-4.69,-4.65,0,*55
1514750844.49,25825,7.44,73020.8,-3.47,-4.73,-4.73,0,*58
1514750845.71,25826,7.44,73014.0,-3.47,-4.53,-4.61,0,*5A
1514750846.91,25827,7.44,73014.5,-3.49,-4.53,-4.61,0,*55
1514750848.12,25828,7.44,73016.5,-3.45,-4.73,-4.61,0,*54
1514750849.32,25829,7.44,73008.3,-3.45,-4.65,-4.65,0,*56
1514750850.56,25830,7.44,73012.5,-3.47,-4.73,-4.61,0,*5F
1514750851.82,25831,7.44,73018.0,-3.47,-4.77,-4.73,0,*59
1514750853.08,25832,7.44,73020.8,-3.47,-4.85,-4.85,0,*5E
1514750854.33,25833,7.44,73022.3,-3.47,-4.77,-4.77,0,*5F
1514750855.57,25834,7.44,73024.5,-3.45,-4.77,-4.77,0,*5A
1514750856.76,25835,7.44,73026.8,-3.45,-4.65,-4.65,0,*5B
1514750858.03,25836,7.44,73024.0,-3.43,-4.69,-4.69,0,*5E
1514750859.27,25837,7.44,73022.3,-3.45,-4.85,-4.85,0,*59
1514750860.53,25838,7.44,73022.3,-3.47,-4.85,-4.85,0,*54
1514750861.77,25839,7.44,73020.5,-3.47,-4.89,-4.99,0,*54
1514750863.01,25840,7.44,73018.5,-3.47,-4.99,-4.89,0,*5A
1514750864.27,25841,7.44,73028.3,-3.47,-4.85,-4.89,0,*56
1514750865.53,25842,7.44,73026.8,-3.47,-4.73,-4.77,0,*5D
1514750866.79,25843,7.44,73022.8,-3.47,-4.73,-4.77,0,*5C
1514750868.03,25844,7.44,73020.0,-3.47,-4.77,-4.65,0,*5C
1514750869.25,25845,7.44,73012.8,-3.47,-4.65,-4.65,0,*5E
1514750870.49,25846,7.44,73018.3,-3.49,-4.69,-4.69,0,*53
1514750871.73,25847,7.44,73014.0,-3.49,-4.69,-4.69,0,*52
1514750872.94,25848,7.44,73008.3,-3.45,-4.65,-4.73,0,*56
1514750874.14,25849,7.44,73010.5,-3.45,-4.65,-4.65,0,*50
1514750875.34,25850,7.44,73004.3,-3.45,-4.65,-4.61,0,*5C
1514750876.53,25851,7.44,73010.5,-3.45,-4.49,-4.53,0,*52
1514750877.72,25852,7.44,73004.8,-3.45,-4.53,-4.53,0,*5A
1514750878.91,25853,7.44,73000.0,-3.45,-4.53,-4.53,0,*5B
1514750880.13,25854,7.44,72998.0,-3.43,-4.49,-4.49,0,*5A
1514750881.32,25855,7.44,72994.3,-3.45,-4.53,-4.41,0,*5E
1514750882.53,25856,7.44,72994.8,-3.43,-4.45,-4.37,0,*5D
1514750883.72,25857,7.44,73000.0,-3.45,-4.49,-4.49,0,*5F
1514750884.95,25858,7.44,73002.3,-3.43,-4.57,-4.57,0,*56
1514750886.14,25859,7.44,73002.3,-3.45,-4.49,-4.49,0,*51
1514750887.36,25860,7.44,73010.8,-3.43,-4.57,-4.49,0,*52
1514750888.55,25861,7.44,73008.8,-3.45,-4.61,-4.53,0,*5B
1514750889.74,25862,7.44,73010.8,-3.45,-4.53,-4.49,0,*52
1514750890.95,25863,7.44,73010.8,-3.43,-4.49,-4.45,0,*52
1514750892.17,25864,7.44,73012.0,-3.43,-4.49,-4.49,0,*59
1514750893.38,25865,7.44,73016.8,-3.43,-4.49,-4.49,0,*58
1514750894.58,25866,7.44,73018.3,-3.45,-4.65,-4.61,0,*59
1514750895.79,25867,7.44,73018.8,-3.45,-4.65,-4.73,0,*5B
1514750897.06,25868,7.44,73018.0,-3.43,-4.69,-4.69,0,*55
1514750898.32,25869,7.44,73018.8,-3.43,-4.69,-4.69,0,*54
1514750899.52,25870,7.44,73020.0,-3.45,-4.61,-4.61,0,*5A
1514750900.78,25871,7.44,73020.3,-3.43,-4.69,-4.69,0,*5D
1514750902.02,25872,7.44,73022.8,-3.45,-4.77,-4.73,0,*5C
1514750903.28,25873,7.44,73018.3,-3.43,-4.81,-4.81,0,*5F
1514750904.55,25874,7.44,73018.8,-3.43,-4.81,-4.85,0,*5C
1514750905.82,25875,7.44,73014.8,-3.43,-4.93,-4.85,0,*5E
1514750907.08,25876,7.44,73012.8,-3.43,-4.85,-4.93,0,*5D
1514750908.31,25877,7.44,73020.5,-3.45,-4.85,-4.85,0,*5D
1514750909.55,25878,7.5,73024.8,-3.45,-4.85,-4.85,0,*52
1514750910.79,25879,7.44,73020.5,-3.45,-4.77,-4.85,0,*5E
1514750912.03,25880,7.44,73022.5,-3.45,-4.89,-4.85,0,*59
1514750913.27,25881,7.44,73016.5,-3.45,-4.85,-4.85,0,*54
1514750914.51,25882,7.44,73016.3,-3.45,-4.85,-4.77,0,*5A
1514750915.75,25883,7.44,73018.5,-3.45,-4.81,-4.81,0,*56
1514750917.02,25884,7.44,73018.0,-3.43,-4.81,-4.81,0,*57
1514750918.23,25885,7.44,73018.0,-3.45,-4.99,-4.89,0,*51
1514750919.48,25886,7.44,73018.3,-3.45,-4.89,-4.89,0,*53
1514750920.72,25887,7.44,73012.0,-3.45,-4.85,-4.89,0,*5E
1514750921.95,25888,7.44,73016.3,-3.45,-4.85,-4.77,0,*50
1514750923.16,25889,7.44,73016.0,-3.45,-4.81,-4.99,0,*55